Home   Weather   Khabarovsk   Past weeks

Flag for Russia Past Weather in Khabarovsk, Russia — Yesterday and Last 2 Weeks

Now
-2 °F

Clear.


Feels Like: -25 °F
Forecast: -13 / -2 °F
Wind: 20 mph from West

Location: Habarovsk

Current Time: Dec 6, 2016 at 6:26:54 pm

Latest Report: Dec 6, 2016 at 5:30 pm


Visibility: 10 mi

Pressure: 30.01 "Hg

Humidity: 49%

Dew Point: -17 °F

Location of KhabarovskLocation

Past Weather in Khabarovsk — Graph

°F

Khabarovsk Temperature Yesterday

Maximum temperature yesterday: 9 °F (at 1:00 pm)
Minimum temperature yesterday: 0 °F (at 11:30 pm)
Average temperature yesterday: 5 °F

High & Low Weather Summary for the Past Weeks

 TemperatureHumidityPressure
High32 °F (Dec 4, 7:30 am)93% (Dec 1, 1:30 pm)30.42 "Hg (Dec 1, 1:30 pm)
Low-9 °F (Nov 23, 8:00 am)41% (Dec 6, 12:30 pm)29.65 "Hg (Dec 4, 5:00 am)
Average7 °F68%30.05 "Hg
* Reported Nov 21 5:00 pm — Dec 6 5:00 pm, Khabarovsk, Weather by CustomWeather, © 2016

Note: Actual official high and low records may vary slightly from our data, if they occured in-between our weather recording intervals... More about our weather records

Advertising

Khabarovsk Weather History for the Previous 24 Hours

Scroll right to see more
 ConditionsComfort  
Time TempWeatherWind HumidityBarometerVisibility
5:00 pm
Tue, Dec 6
-2 °FSunny.20 mph49%30.01 "Hg10 mi
4:30 pm-2 °FSunny.20 mph45%30.01 "Hg10 mi
4:00 pm0 °FSunny.20 mph41%30.01 "Hg10 mi
3:30 pm0 °FSunny.20 mph41%30.01 "Hg10 mi
3:00 pm0 °FSunny.22 mph41%29.98 "Hg10 mi
2:30 pm0 °FSunny.22 mph41%29.98 "Hg10 mi
2:00 pm-2 °FSunny.22 mph41%29.98 "Hg10 mi
1:30 pm-2 °FSunny.20 mph41%29.98 "Hg10 mi
1:00 pm-2 °FSunny.20 mph41%29.98 "Hg10 mi
12:30 pm-2 °FSunny.20 mph41%29.98 "Hg10 mi
12:00 pm-4 °FSunny.22 mph49%29.98 "Hg10 mi
11:30 am-6 °FSunny.22 mph49%29.98 "Hg10 mi
11:00 am-6 °FSunny.20 mph49%29.98 "Hg10 mi
10:30 am-8 °FSunny.20 mph53%29.98 "Hg10 mi
10:00 am-8 °FSunny.20 mph53%29.95 "Hg10 mi
9:30 am-8 °FSunny.20 mph48%29.95 "Hg10 mi
9:00 am-8 °FSunny.20 mph48%29.95 "Hg10 mi
8:30 am-8 °FClear.20 mph48%29.95 "Hg10 mi
8:00 am-8 °FClear.17 mph48%29.95 "Hg10 mi
7:30 am-8 °FClear.17 mph48%29.95 "Hg10 mi
7:00 am-8 °FClear.17 mph48%29.92 "Hg10 mi
6:30 am-8 °FClear.15 mph53%29.95 "Hg10 mi
6:00 am-6 °FClear.20 mph49%29.92 "Hg10 mi
5:30 am-6 °FClear.20 mph49%29.92 "Hg10 mi
5:00 am-6 °FClear.15 mph54%29.95 "Hg10 mi
4:30 am-6 °FClear.15 mph54%29.95 "Hg10 mi
4:00 am-6 °FClear.20 mph54%29.95 "Hg10 mi
3:30 am-6 °FClear.15 mph54%29.95 "Hg10 mi
3:00 am-4 °FClear.17 mph49%29.98 "Hg10 mi
2:30 am-4 °FClear.17 mph49%29.98 "Hg10 mi
2:00 am-4 °FClear.13 mph49%29.98 "Hg10 mi
1:30 am-4 °FClear.13 mph54%29.98 "Hg10 mi
1:00 am-2 °FClear.15 mph49%29.98 "Hg10 mi
12:30 am0 °FClear.13 mph45%29.98 "Hg10 mi
12:00 am0 °FClear.13 mph50%29.98 "Hg10 mi
11:30 pm
Mon, Dec 5
0 °FClear.15 mph50%29.98 "Hg10 mi
11:00 pm1 °FClear.15 mph42%30.01 "Hg10 mi
10:30 pm1 °FClear.13 mph46%30.01 "Hg10 mi
10:00 pm1 °FClear.13 mph46%30.01 "Hg10 mi
9:30 pm1 °FClear.13 mph50%30.01 "Hg10 mi
9:00 pm3 °FClear.10 mph46%30.01 "Hg10 mi
8:30 pm3 °FClear.10 mph50%30.04 "Hg10 mi
8:00 pm5 °FClear.10 mph46%30.04 "Hg10 mi
7:30 pm5 °FClear.10 mph51%30.04 "Hg10 mi
7:00 pm5 °FClear.13 mph51%30.04 "Hg10 mi
6:30 pm5 °FClear.13 mph51%30.04 "Hg10 mi
6:00 pm5 °FClear.10 mph55%30.04 "Hg10 mi
Weather by CustomWeather, © 2016

See weather overviewHow to use our weather pages